Location: Unspecified
(43.3830°N, 0.0000°E)
Time: 21:56:06
(UTC+00:00)

Explorer 7 - Pass Details

Date: 25 June 2019
Orbit: 485 x 680 km, 50.3° (Epoch: 17 July)

Event Time Altitude Azimuth Distance (km) Brightness Sun altitude
Rises 10:35:08 0° 287° (WNW) 2,824 10.2 63.1°
Reaches altitude 10° 10:37:32 10° 296° (WNW) 1,957 9.5 63.4°
Maximum altitude 10:41:39 34° 2° (N) 1,038 8.5 64.0°
Drops below altitude 10° 10:46:00 10° 68° (ENE) 2,060 10.0 64.5°
Sets 10:48:35 0° 78° (ENE) 2,995 10.7 64.9°
